{"data":{"norad_id":49282,"epoch":"2026-09-19T23:28:49.966176Z","epoch_age_seconds":72182,"freshness":"FRESH","line1":"1 49282U 21090D   26262.97835609 -.00000118  00000+0 -35369-3 0  9992","line2":"2 49282  87.8899 270.7995 0002020  84.7930 275.3430 13.14504547240037","mean_motion":13.14504547,"eccentricity":0.000202,"inclination_deg":87.8899,"raan_deg":270.7995,"arg_perigee_deg":84.793,"mean_anomaly_deg":275.343,"bstar":-0.00035369,"rev_number":24003,"period_min":109.54697747424,"perigee_km":1204.2516832243,"apogee_km":1207.3155871609,"semimajor_km":7583.9206351926,"source":"CELESTRAK","updated_at":"2026-09-20T09:00:44.668823Z"}}